GFSFLT2_con_3kmhel_000.txt.gz
Helicity
239 283 293 264 265 233 240 238 259 282 306 307 312 260 223 249 227 194 156 129 119 101 92 84 87 76 73
225 307 266 295 252 257 259 264 256 293 264 277 319 215 197 212 162 135 116 102 73 63 66 56 51 58 49
254 341 320 316 271 242 253 241 255 287 239 268 260 163 162 147 121 102 89 64 53 57 58 55 41 33 23
303 329 317 327 279 243 267 241 236 238 237 235 248 114 121 123 91 92 79 60 66 64 52 48 43 29 13
322 311 336 362 278 285 285 303 242 236 216 228 185 154 163 113 87 91 66 65 65 51 45 40 39 26 14
320 295 306 308 298 323 296 312 309 226 188 197 177 165 156 115 106 68 55 56 55 41 35 34 25 14 5
339 294 336 319 336 350 324 310 275 255 199 161 198 171 149 110 85 60 42 56 45 36 38 26 20 17 10
312 340 335 346 354 342 289 277 266 186 219 179 184 153 143 113 93 64 64 45 33 44 35 22 31 34 26
396 421 395 391 386 374 346 290 245 203 208 170 161 140 118 122 116 100 52 35 48 45 39 37 41 35 43
540 507 442 385 354 313 282 298 255 238 216 177 163 161 132 115 110 79 75 66 59 48 39 51 43 67 61
482 449 398 334 314 265 234 248 235 199 249 187 170 131 125 108 78 64 72 77 76 76 63 62 64 62 64
518 433 370 294 284 226 199 211 167 161 204 178 140 118 117 92 73 68 55 67 67 78 86 58 42 49 56
444 422 242 331 254 220 201 195 132 125 121 111 93 89 91 102 106 82 66 73 60 90 70 52 54 49 40
478 362 272 327 226 205 207 158 129 138 113 89 83 82 75 86 87 85 81 124 107 87 68 54 57 58 56
497 350 269 297 245 221 173 138 129 136 114 91 74 56 75 84 101 105 97 108 95 74 57 66 59 75 68
416 311 305 256 241 181 144 120 122 115 88 80 59 51 72 105 101 98 91 87 73 65 62 75 86 34 27
412 337 277 253 194 155 125 118 111 91 74 67 47 48 56 76 89 131 98 75 80 93 77 75 84 84 -10

GFSFLT2_con_3kmhel_003.txt.gz
Helicity
325 391 394 427 357 284 301 249 228 195 204 198 221 207 210 219 238 211 203 172 143 113 111 103 79 43 46
264 309 448 407 341 272 262 241 283 261 253 214 217 207 198 209 224 183 168 135 109 107 94 77 39 47 43
329 350 392 463 403 307 296 331 308 320 290 230 203 198 183 185 167 157 141 108 97 92 80 52 57 50 33
363 453 423 448 382 366 337 337 310 267 274 229 220 178 136 167 142 141 113 94 91 81 68 66 63 69 52
393 485 439 371 388 375 343 324 290 313 295 257 228 209 194 187 137 111 99 95 81 71 66 58 73 66 63
453 395 466 280 358 358 370 406 337 358 310 231 210 245 218 205 132 121 104 79 73 66 56 64 69 66 55
429 377 436 292 365 366 384 366 337 359 292 221 189 242 217 167 113 90 83 78 74 46 50 57 63 53 46
342 249 353 348 326 349 300 372 410 343 275 248 212 245 187 184 92 74 107 93 64 38 51 53 48 44 48
538 404 352 384 431 457 431 391 290 312 235 230 232 241 183 165 137 123 122 84 43 52 61 57 49 60 67
611 551 597 458 399 416 352 276 337 314 269 198 275 234 193 153 151 144 135 68 64 65 66 74 81 135 116
639 618 602 611 329 402 282 234 314 326 216 291 256 208 196 161 130 130 101 103 119 109 80 76 85 100 144
582 487 475 361 353 332 339 232 261 315 254 286 212 213 189 149 134 102 92 80 102 124 127 88 55 63 65
462 432 334 406 336 378 267 224 213 230 242 189 187 145 134 143 107 120 82 113 96 98 108 94 91 95 79
482 483 416 471 347 290 253 199 187 213 158 167 139 121 119 108 123 115 97 130 119 100 96 77 79 85 88
602 531 395 434 300 210 217 147 187 200 157 136 103 95 105 103 115 155 126 125 124 96 70 68 83 80 71
496 489 401 415 276 178 143 148 190 166 133 120 119 73 74 94 167 151 122 124 100 86 85 82 84 91 92
423 507 441 310 211 139 131 170 158 125 115 113 100 74 80 121 115 135 156 133 105 100 97 97 87 106 107

GFSFLT2_con_3kmhel_006.txt.gz
Helicity
267 291 401 471 509 390 346 349 370 267 258 276 226 181 150 140 150 149 177 223 230 200 189 166 147 146 103
232 273 368 431 489 450 390 327 417 296 247 225 179 125 126 152 157 168 205 234 221 184 172 159 139 110 83
236 268 422 451 528 446 359 325 331 294 241 207 154 133 164 158 162 174 182 220 177 155 147 134 110 95 58
261 332 566 560 511 509 441 385 357 338 281 236 204 177 174 167 159 152 186 185 150 150 126 109 89 79 50
325 428 587 580 527 524 390 467 307 356 337 323 288 242 214 169 158 156 182 147 152 130 100 79 93 57 55
407 432 514 469 466 561 473 529 425 309 342 301 291 233 223 230 148 170 146 147 136 89 72 71 70 55 52
171 362 461 477 430 501 407 408 376 320 372 272 260 175 218 199 120 136 116 130 102 84 67 60 57 51 47
200 228 282 432 444 434 384 486 481 387 259 255 246 225 222 171 123 106 124 105 104 83 70 56 53 49 51
171 226 332 488 591 598 452 461 407 325 287 254 195 259 220 175 177 122 120 125 107 75 55 57 67 67 76
345 332 462 365 400 527 573 618 661 303 266 249 223 236 184 195 194 192 169 98 69 57 66 67 74 140 138
471 492 626 761 649 594 515 377 444 284 159 241 233 215 200 217 176 139 139 104 108 102 78 56 67 98 139
568 589 658 635 556 480 435 329 291 232 212 199 195 214 219 181 147 144 120 87 100 99 130 100 61 47 32
487 627 669 491 543 408 404 386 313 233 180 179 217 201 176 147 122 107 87 107 101 105 104 88 102 84 52
458 548 527 371 393 305 348 287 184 152 139 173 161 147 129 118 100 96 121 108 110 78 81 61 83 84 75
374 487 515 304 450 286 261 161 125 135 141 121 91 100 103 112 85 116 103 107 111 96 93 62 63 75 63
259 334 402 293 381 266 207 98 124 129 113 99 118 104 68 65 78 126 136 118 118 96 96 70 49 56 69
235 317 367 232 173 171 113 95 118 88 85 110 99 92 81 90 90 69 135 132 117 105 112 128 85 91 105

GFSFLT2_con_3kmhel_009.txt.gz
Helicity
347 292 307 309 269 294 324 395 370 223 281 203 167 278 312 258 238 200 182 162 137 115 129 168 208 188 194
257 281 292 360 301 331 365 369 395 321 277 313 189 287 225 266 209 204 174 139 138 125 158 226 224 194 180
276 271 305 502 448 398 394 378 439 415 342 376 246 299 233 164 179 198 136 128 137 149 186 232 191 172 138
204 212 351 507 516 448 458 404 453 456 472 270 323 189 216 169 132 120 107 130 149 153 217 201 161 133 119
141 162 146 317 502 318 501 429 426 515 532 379 407 380 211 159 163 105 114 142 163 181 208 160 130 103 104
131 122 126 183 281 369 462 714 351 398 525 471 518 354 264 267 164 101 110 161 173 183 166 138 105 89 104
120 96 100 119 193 376 336 549 512 470 456 389 478 376 303 148 117 89 121 152 167 155 124 101 84 80 65
121 100 88 138 172 243 370 598 853 386 520 348 369 370 213 209 113 90 127 143 144 118 99 92 82 59 60
72 70 66 90 173 377 434 490 557 619 496 356 399 360 256 187 147 103 123 136 106 89 98 89 68 62 71
60 41 25 39 149 297 351 462 598 557 424 461 454 351 280 235 139 173 170 95 98 102 84 67 80 129 138
28 48 183 171 259 459 451 437 563 484 447 532 467 286 233 173 172 201 204 195 164 127 94 89 93 113 152
-17 117 247 250 325 401 425 480 404 299 267 337 229 185 201 189 185 190 170 152 123 104 99 100 115 124 99
27 152 264 273 332 460 441 451 432 263 223 150 124 162 161 172 168 174 179 131 124 115 110 131 138 135 98
33 196 248 291 342 351 314 312 303 230 153 113 120 139 130 129 136 154 118 125 138 154 145 111 87 78 73
113 180 227 299 353 275 186 170 108 81 98 85 89 92 99 100 112 104 109 106 112 123 111 72 80 68 57
110 169 217 269 294 187 149 93 69 70 64 64 98 97 89 60 49 98 104 105 121 99 97 88 65 102 86
100 176 216 209 186 121 84 62 64 65 76 81 79 79 83 80 81 84 106 98 103 101 110 114 76 90 111

GFSFLT2_con_3kmhel_012.txt.gz
Helicity
156 168 209 240 265 297 296 293 292 202 140 162 219 183 172 235 283 274 330 293 214 196 140 155 154 150 88
97 117 138 175 241 256 308 361 362 304 137 152 202 212 220 342 312 316 319 302 231 172 167 182 157 125 97
130 106 115 134 160 253 263 368 359 288 234 190 155 241 306 371 409 426 381 224 209 148 160 151 150 108 117
132 98 81 78 134 151 163 259 224 250 255 254 212 233 264 380 577 438 305 327 221 157 166 156 115 112 133
98 110 106 90 93 85 172 195 247 359 332 265 326 416 513 354 570 444 262 278 219 121 84 130 103 97 127
104 105 90 123 127 114 110 123 171 320 370 370 535 545 504 477 506 386 378 237 203 71 123 108 97 96 128
113 107 107 103 114 132 106 160 201 339 328 309 485 420 660 610 535 465 280 154 141 114 117 80 99 126 130
84 99 109 113 114 98 66 69 249 444 492 468 496 424 468 530 525 282 209 147 131 93 72 91 129 128 115
51 71 82 69 91 118 98 146 158 393 538 463 455 589 565 565 394 219 181 149 81 57 84 105 119 110 112
26 55 95 107 75 129 154 145 234 247 394 549 535 617 474 413 380 335 214 105 57 59 77 97 121 170 140
16 29 49 78 142 114 122 116 128 252 301 472 501 562 472 384 386 255 167 129 147 99 91 120 105 101 146
40 -2 -8 31 85 69 92 180 237 231 190 307 342 505 525 418 309 208 153 170 207 237 212 169 94 80 78
18 -27 -7 -3 83 174 230 298 369 412 369 287 257 279 224 160 142 150 221 171 178 173 156 129 128 145 163
-37 -24 -32 47 149 172 199 217 283 279 220 189 203 136 113 133 152 191 192 163 147 124 129 128 139 147 143
-42 -31 -18 92 161 153 147 144 147 130 139 125 108 112 116 103 144 126 126 122 114 165 159 126 112 105 95
-36 -29 14 85 145 134 125 63 70 42 51 47 54 80 93 83 66 99 98 105 122 131 125 121 87 89 94
-11 -6 45 82 131 140 58 33 51 50 43 38 57 72 95 96 70 64 97 97 107 103 106 116 97 98 126

GFSFLT2_con_3kmhel_015.txt.gz
Helicity
108 95 103 111 105 121 169 199 194 147 165 152 170 233 204 164 156 144 161 182 142 180 246 294 290 210 149
60 46 52 83 112 103 113 135 164 153 127 123 151 156 191 160 157 158 149 169 181 278 375 346 311 291 152
133 96 67 58 51 71 97 115 111 105 114 114 113 121 112 140 100 123 155 188 247 423 628 447 389 256 151
119 96 88 63 77 72 56 87 95 108 100 109 111 112 71 29 65 100 205 240 362 616 678 660 403 271 165
57 61 46 38 59 62 69 36 37 93 98 116 136 145 174 71 58 134 215 400 324 773 635 602 377 351 242
46 31 26 42 41 48 56 48 -9 66 94 120 161 171 163 194 184 185 275 581 830 598 650 426 337 324 231
73 55 45 52 62 68 71 80 73 68 41 80 149 135 163 255 178 309 464 762 703 503 355 354 281 274 224
66 90 81 76 72 103 108 111 91 65 111 77 100 147 251 277 250 402 579 668 535 377 290 308 298 231 149
27 39 40 43 42 50 105 115 95 79 135 133 127 248 299 329 323 360 499 576 514 338 309 277 225 118 82
-31 -23 -2 23 31 74 121 148 152 32 130 167 256 358 247 296 470 494 543 544 387 278 191 156 120 149 181
-38 -37 -11 10 48 65 74 105 48 -72 17 257 319 419 338 292 429 606 592 418 353 210 134 85 75 156 182
-34 -41 -26 10 38 39 12 -51 -27 -63 -50 305 263 455 504 433 377 506 474 423 291 196 118 64 69 78 107
-27 -31 -28 -22 -30 -66 -50 22 182 247 317 326 257 372 380 337 366 412 450 252 172 175 224 189 178 172 135
-38 -41 -65 -57 -52 -81 -50 153 226 252 286 284 282 262 228 204 209 249 152 126 118 128 163 177 168 128 111
-41 -80 -67 -65 -60 -53 81 129 141 133 113 128 181 169 135 69 107 134 127 101 110 165 159 144 105 102 112
-37 -58 -50 -43 -14 7 89 65 75 43 43 82 75 71 87 149 106 99 113 121 113 132 144 139 123 112 112
-28 -34 -21 -5 -3 48 97 59 23 27 47 55 58 29 59 82 81 61 82 93 121 125 122 134 137 126 110

GFSFLT2_con_3kmhel_018.txt.gz
Helicity
86 95 36 28 19 46 53 62 62 62 78 78 88 73 84 113 128 133 124 114 128 93 100 131 179 205 265
89 68 62 38 85 66 38 44 50 47 34 38 69 98 107 77 104 118 107 98 90 125 145 135 175 235 264
92 64 53 40 46 65 52 52 51 68 90 81 66 59 77 102 81 76 90 98 122 103 79 109 164 262 332
80 79 39 16 26 44 27 55 42 57 67 89 5 20 49 56 60 70 81 72 76 80 77 82 140 236 371
99 92 87 53 19 -14 15 11 44 36 38 43 43 61 85 81 67 95 79 67 51 46 56 48 186 360 624
103 113 100 88 73 50 37 9 -40 -17 -25 19 19 7 18 72 89 106 130 107 78 49 75 101 326 640 823
107 124 127 120 120 104 89 46 35 19 29 38 51 35 37 15 12 44 109 92 59 76 77 365 657 727 823
85 99 108 135 111 61 18 39 50 35 53 77 55 55 50 70 59 67 79 68 63 126 457 680 627 796 950
23 19 11 16 30 46 58 33 -6 13 45 86 83 48 108 89 82 75 67 38 210 453 546 613 698 632 344
21 35 23 32 -7 42 80 46 13 -82 -16 58 59 137 32 42 66 75 51 160 354 523 524 588 457 496 384
-14 6 22 6 18 31 51 29 -32 -68 -27 2 9 40 123 93 91 183 357 359 480 520 526 410 320 383 365
-16 -18 -27 -45 -33 -13 -15 -25 -79 -75 -33 -17 -9 47 166 163 166 330 577 636 576 547 404 263 197 191 194
-23 -30 -51 -60 -26 -26 -36 -59 -103 -107 -41 -47 -54 113 164 193 245 357 521 504 440 413 318 256 204 203 224
-35 -40 -40 -43 -23 -33 -42 -82 -89 -78 22 99 151 146 139 137 228 343 417 400 395 326 300 271 270 251 179
-48 -51 -7 6 6 -17 -38 -38 -27 24 77 108 154 171 189 227 263 339 400 278 209 196 192 208 216 200 155
-33 13 47 6 26 4 -17 -10 48 54 58 71 80 107 117 137 113 113 133 92 127 144 172 164 121 124 125
47 106 59 44 41 19 21 37 48 55 40 63 75 52 61 59 23 25 28 41 99 126 124 115 93 88 92

GFSFLT2_con_3kmhel_021.txt.gz
Helicity
100 61 68 62 23 12 43 54 53 56 75 82 107 99 101 110 83 86 99 85 56 38 50 83 92 98 123
59 50 54 12 -18 -28 -19 40 74 64 79 124 137 124 115 89 89 91 101 114 119 105 73 32 61 99 110
84 54 30 0 -13 -10 -5 -3 35 59 95 112 131 148 111 101 96 111 95 101 113 110 83 75 65 35 29
68 56 36 17 18 17 12 23 25 37 82 92 112 147 152 123 71 53 77 73 85 94 94 78 85 92 65
117 107 88 46 41 46 65 79 113 105 101 94 91 103 126 116 95 122 95 96 111 110 111 100 99 88 70
95 98 78 80 79 82 103 93 148 163 108 91 117 123 106 100 70 54 75 143 143 139 147 116 87 71 97
116 126 89 64 40 26 47 69 101 69 56 61 62 81 112 145 159 160 86 85 111 106 131 140 97 53 41
104 112 109 98 29 5 -22 -26 -9 27 29 19 18 43 91 143 161 178 117 106 98 113 129 105 105 66 41
34 19 -10 6 -10 -29 -10 1 -10 -4 23 14 7 41 100 161 187 146 123 112 98 104 110 117 106 267 459
33 38 31 -5 -1 -46 -51 -51 -47 -27 10 -5 -26 -48 -25 37 113 86 74 108 147 85 70 256 482 643 765
-12 -12 -19 -32 -52 -58 -73 37 -3 -4 -6 -17 -9 3 2 1 22 20 66 111 136 155 319 469 551 699 763
-29 -9 -40 -47 -50 -64 -36 31 9 7 -3 12 11 2 1 16 38 58 125 335 356 428 491 523 610 618 516
-14 -18 -36 -41 -40 -9 39 47 11 -10 -13 -7 -3 2 11 21 51 73 195 511 537 539 486 437 414 348 336
-15 -29 -48 -29 2 61 51 23 -5 -31 -47 -11 8 -3 32 64 79 100 235 328 508 552 518 329 268 282 322
-49 -29 36 75 121 88 55 18 -4 -11 -13 21 65 85 75 86 118 182 255 434 393 397 401 374 355 262 256
72 109 140 157 154 83 38 15 9 23 36 41 78 89 78 193 230 221 286 322 326 325 335 323 284 239 133
184 200 226 212 116 58 40 48 48 59 74 66 77 75 34 27 145 193 166 195 201 264 217 179 182 153 128

GFSFLT2_con_3kmhel_024.txt.gz
Helicity
163 104 77 67 55 39 39 16 -15 -35 30 55 82 119 121 109 103 96 103 102 89 98 113 88 61 10 76
157 140 101 79 75 69 48 35 16 2 2 20 59 88 117 122 121 122 99 100 115 111 111 105 111 58 27
164 150 142 117 89 79 59 32 15 -13 -7 2 16 57 101 116 131 131 124 114 96 103 102 110 125 104 55
168 160 139 105 109 107 68 61 30 17 -4 13 37 67 77 95 122 148 147 153 160 104 119 84 97 101 108
163 131 107 91 103 103 94 59 28 21 9 19 22 62 105 134 136 179 136 135 167 221 203 120 98 90 90
126 127 107 134 122 112 100 79 42 62 30 42 23 38 71 64 148 163 154 130 150 149 151 169 144 108 120
117 118 122 119 114 102 101 79 9 -20 0 21 65 36 58 68 97 156 182 191 186 171 141 123 151 137 118
102 117 123 132 114 89 -21 -30 -21 -17 -18 -6 -7 -14 9 45 83 145 184 202 174 154 157 115 97 106 93
31 21 16 12 24 7 -33 -51 -23 -32 -34 -41 -25 3 2 2 73 180 199 191 147 121 122 89 78 96 83
68 59 48 37 -3 -4 -30 -37 -44 -34 -52 -13 -36 -6 -23 22 26 58 95 136 133 159 170 145 122 100 110
41 31 17 -8 -44 -48 -47 -57 -77 -56 -36 -51 -43 -2 20 59 65 40 77 129 112 132 144 91 85 267 327
12 -3 -31 -50 -52 -50 -35 -20 -11 15 33 22 -20 7 21 27 78 53 96 127 136 138 258 243 256 356 382
-34 -34 -49 -10 16 22 48 74 89 84 40 35 15 -17 9 39 50 70 86 134 280 366 469 437 422 421 574
-14 37 61 57 75 87 104 126 61 2 23 -12 -30 -26 8 47 98 88 104 133 324 426 499 561 587 648 700
54 84 118 145 162 168 147 33 15 5 1 -4 23 48 47 58 63 50 113 185 333 405 425 374 310 322 359
133 156 177 209 220 98 42 36 38 50 60 54 73 62 41 93 196 123 199 267 332 294 259 280 267 276 338
186 171 205 195 114 95 120 129 142 147 160 157 124 116 74 116 188 279 222 249 298 318 260 235 278 282 266

GFSFLT2_con_3kmhel_027.txt.gz
Helicity
189 152 117 93 96 102 114 98 100 36 31 30 31 33 38 79 109 112 108 113 102 127 146 170 139 68 25
161 136 121 99 108 101 105 86 92 67 37 17 28 25 20 32 83 120 105 99 90 101 105 123 99 141 92
181 173 164 145 128 108 87 86 109 73 45 46 41 32 21 36 65 118 124 108 108 95 113 105 108 92 108
196 189 175 150 129 116 65 86 107 95 69 45 18 24 26 30 55 116 160 131 107 152 134 128 168 98 73
185 178 156 124 105 103 122 114 120 98 97 94 83 71 53 19 25 47 102 182 135 137 108 126 162 172 159
143 169 135 141 128 128 142 141 37 105 86 84 65 60 64 59 27 40 71 97 124 87 89 111 129 124 134
133 137 122 116 115 128 123 131 103 43 109 61 82 20 54 11 5 43 76 92 111 135 104 91 97 106 135
118 115 114 119 111 60 -0 7 19 60 93 29 -72 -23 -42 -20 -3 35 73 121 141 151 147 107 87 103 130
38 23 5 -1 -7 -47 -15 -45 -12 -14 145 -29 -76 -74 -83 -26 29 70 94 151 155 220 96 98 71 97 124
48 45 46 58 18 18 -38 -46 -34 -6 -15 -68 -70 -55 -16 11 17 22 -13 58 99 178 172 99 94 78 54
31 110 125 112 103 76 36 -33 -60 -13 34 -19 1 9 11 68 64 64 55 64 96 126 107 77 59 45 37
114 103 58 23 16 31 56 73 85 100 130 101 75 74 90 66 86 83 85 109 86 76 37 16 14 -0 -4
-24 17 33 79 135 165 180 170 153 155 130 64 12 -36 -29 48 99 123 128 131 113 138 231 325 253 250 292
30 72 103 135 166 186 186 125 47 11 -12 -9 -21 -17 -0 60 64 152 154 109 100 243 381 482 511 472 431
102 140 168 182 208 216 92 98 83 102 84 29 -5 -4 20 95 74 79 78 90 152 225 379 413 561 547 518
163 184 183 179 183 109 86 74 103 131 152 99 80 58 63 70 154 138 131 178 179 253 262 301 355 355 441
177 174 189 188 136 125 113 124 129 136 136 135 139 118 63 97 164 246 214 239 203 306 273 264 283 306 232

GFSFLT2_con_3kmhel_030.txt.gz
Helicity
196 159 125 105 107 109 121 128 127 37 23 34 38 20 21 24 41 54 48 69 78 104 129 145 161 146 170
205 177 151 118 123 134 124 127 100 68 53 26 23 29 39 61 53 43 45 57 74 94 102 121 121 100 132
235 214 178 188 159 152 120 111 114 82 46 32 27 38 18 29 35 40 43 55 72 95 139 85 126 124 130
245 220 182 184 168 156 90 100 101 83 74 54 16 12 15 16 30 31 32 49 72 89 103 109 103 136 116
187 204 224 119 113 118 141 120 129 115 111 134 90 90 107 53 34 21 19 27 45 62 78 147 129 115 120
178 148 151 162 154 160 176 186 26 133 135 131 131 139 119 101 31 25 32 61 46 64 47 52 141 112 112
148 167 149 154 141 117 156 168 167 161 133 51 137 105 105 80 -35 -5 34 52 48 59 55 60 85 75 62
140 128 133 101 93 43 -42 -49 -14 157 131 44 56 -24 18 61 -25 -28 0 35 59 75 62 69 86 82 75
38 42 19 28 22 -32 -84 -119 -71 108 174 67 25 37 65 71 118 95 63 38 74 68 91 78 84 101 59
96 95 95 95 35 37 21 22 40 73 181 70 115 108 95 124 73 44 13 14 35 34 30 63 112 73 61
149 148 114 75 76 85 130 160 177 210 222 75 124 141 139 112 152 113 78 60 3 3 42 48 100 130 87
69 76 79 94 114 153 189 217 202 173 177 128 119 91 72 72 117 126 91 76 56 47 25 23 63 94 86
96 120 134 172 200 219 211 159 145 174 151 57 -3 -30 10 77 152 153 83 63 89 14 -49 -38 7 40 110
141 166 163 158 159 165 188 150 130 133 115 101 64 16 22 93 168 178 149 68 76 63 167 174 147 80 76
140 168 176 163 170 181 199 178 160 190 163 129 85 66 40 164 147 97 89 60 91 191 276 311 299 229 208
175 185 190 192 208 189 158 147 162 183 142 147 126 103 66 100 187 149 159 134 154 228 273 371 331 342 377
182 179 201 218 170 148 134 127 149 120 100 81 136 124 113 146 222 154 187 205 146 223 216 216 226 301 411

GFSFLT2_con_3kmhel_033.txt.gz
Helicity
187 161 139 144 138 127 96 110 107 34 28 27 39 32 47 59 46 47 53 55 59 73 93 98 38 53 107
194 174 173 135 122 99 79 146 115 54 37 46 22 25 20 31 42 67 61 61 57 50 47 69 43 56 52
219 230 188 153 106 140 118 107 133 70 40 26 12 16 17 29 42 52 61 66 34 31 38 29 59 76 44
220 207 167 127 171 117 100 106 110 135 110 74 31 25 13 17 23 28 32 29 26 16 28 50 52 64 70
153 204 179 98 86 101 137 158 167 178 175 140 109 144 169 66 33 10 27 32 32 36 32 24 34 42 43
163 123 104 112 145 189 192 166 82 150 162 156 168 145 114 108 34 -13 -23 6 49 62 49 49 26 28 27
110 129 138 159 145 116 97 66 101 50 128 119 153 88 130 92 10 -17 -38 -34 -17 36 63 56 64 52 72
126 133 138 112 33 -62 -43 -34 104 161 133 113 191 162 129 138 94 55 25 -16 -40 -32 71 110 66 25 33
33 44 46 30 -2 -50 -14 23 107 168 167 152 206 164 148 171 176 105 36 18 33 37 108 100 76 37 3
75 74 56 88 46 47 115 143 174 242 211 161 172 156 131 209 156 156 106 75 37 9 8 5 14 -24 -35
75 108 142 160 160 170 180 180 197 236 196 105 175 163 64 145 166 149 142 81 31 11 16 16 15 16 11
110 136 145 166 161 162 173 187 201 193 207 120 145 164 132 102 130 131 144 128 90 70 36 18 43 75 126
127 156 160 178 194 201 199 198 207 213 184 143 170 149 144 148 170 215 119 98 102 117 111 70 51 78 80
136 184 191 200 204 195 207 210 195 179 163 135 114 111 121 140 189 245 208 111 130 136 79 86 85 93 124
146 166 172 177 176 177 169 161 164 182 186 138 137 105 132 221 255 255 172 133 144 174 159 131 143 128 160
159 134 117 119 111 113 105 119 158 176 144 147 163 142 125 131 209 189 177 231 247 275 220 207 250 243 173
157 115 125 131 95 119 86 90 127 114 113 123 158 153 142 172 245 163 179 187 167 262 305 338 307 262 277

GFSFLT2_con_3kmhel_036.txt.gz
Helicity
173 143 128 134 132 111 89 115 95 14 37 49 46 63 59 75 96 99 90 85 85 83 79 73 64 27 53
171 163 163 140 108 102 90 104 137 60 19 20 22 29 33 49 59 68 82 84 88 80 88 90 74 79 91
223 213 172 125 111 125 111 96 122 63 30 21 15 21 24 21 24 27 42 49 54 62 65 69 69 49 41
213 181 193 135 153 103 78 108 152 152 93 57 47 39 25 27 25 21 37 45 41 39 30 31 37 46 53
161 216 176 88 70 105 168 185 164 156 168 192 128 163 163 68 -7 -32 -29 -16 25 38 33 24 13 20 32
150 82 69 104 116 153 176 103 8 125 141 174 183 150 175 156 66 5 -29 -36 -34 -32 -0 44 39 32 36
101 105 75 141 74 -23 33 68 143 173 78 131 149 140 172 159 62 31 13 -3 -12 -1 14 41 59 37 45
100 118 105 12 -2 4 51 92 220 224 185 197 222 241 209 216 128 74 39 16 9 9 50 71 69 78 63
53 45 49 39 20 30 76 104 217 254 194 199 254 243 224 248 222 93 31 18 18 3 -16 -8 12 60 84
42 64 80 94 36 50 111 155 201 249 207 227 244 226 196 202 165 222 134 100 46 23 18 13 -14 88 136
79 88 91 105 114 124 152 167 185 255 237 149 234 231 216 205 238 215 159 128 129 106 57 41 30 14 43
56 69 97 132 153 166 179 211 233 244 249 207 258 207 199 220 217 203 212 184 173 148 91 61 40 37 62
70 105 104 117 136 148 172 187 206 217 214 190 195 187 158 178 264 327 261 181 140 134 158 96 41 9 22
80 111 112 111 112 90 124 147 165 200 168 146 148 165 158 210 243 318 302 260 335 241 144 75 64 61 68
81 93 117 132 123 108 112 110 134 200 204 153 144 160 171 224 255 289 261 251 211 159 83 6 51 82 98
171 184 183 141 93 101 81 93 112 171 139 148 161 171 181 156 234 279 252 269 278 236 143 136 190 95 117
187 191 149 126 48 80 88 79 100 84 98 139 147 161 186 175 246 193 182 203 229 220 211 187 243 280 206

GFSFLT2_con_3kmhel_039.txt.gz
Helicity
218 180 150 133 123 114 108 113 132 26 30 41 34 43 42 46 62 77 90 99 131 111 66 104 85 95 66
209 180 149 149 144 109 105 115 153 128 54 16 16 12 17 27 41 44 45 60 76 92 128 148 97 72 66
214 199 200 169 123 116 135 112 179 102 54 41 35 35 36 38 41 46 41 41 51 49 58 63 47 52 40
194 217 202 172 167 143 114 152 181 161 114 143 67 37 8 -4 -20 -14 -24 -10 12 27 57 63 58 55 60
203 200 134 128 124 145 184 168 187 200 139 203 168 185 185 65 27 -2 -30 -40 31 45 56 60 51 42 29
152 122 123 145 121 92 62 82 214 202 205 282 229 245 229 209 102 27 1 -11 -23 14 60 86 51 53 35
128 129 53 107 66 53 79 166 215 244 171 236 213 252 228 202 84 39 18 9 2 -21 -28 54 79 69 78
118 112 100 52 46 64 100 129 239 247 183 263 247 265 218 236 142 71 31 10 11 7 -5 -15 2 19 20
53 49 38 38 29 1 45 78 173 223 221 224 273 279 292 344 256 147 95 67 63 73 39 29 16 27 52
48 60 68 90 35 56 99 122 152 217 228 267 273 257 291 372 297 279 213 156 80 51 45 33 26 39 66
90 101 110 102 99 102 105 119 152 231 246 165 295 281 256 346 339 268 221 214 165 127 65 32 26 6 58
103 105 94 84 111 132 137 159 177 211 233 216 286 260 281 297 300 287 243 232 228 188 127 69 17 6 -4
114 137 147 160 146 154 158 153 172 186 179 208 235 252 244 247 303 304 266 247 170 235 224 166 100 22 -20
140 160 168 158 169 155 150 157 149 189 172 159 139 174 206 204 254 396 393 278 316 241 140 131 104 55 10
131 141 147 132 145 119 101 60 51 86 213 205 147 149 181 171 284 328 265 220 215 171 71 83 106 86 47
141 161 168 165 122 113 84 43 43 95 143 163 179 157 145 110 182 261 151 189 211 209 189 81 59 101 106
180 198 180 182 115 125 92 56 62 104 83 110 126 102 132 150 172 108 220 175 184 135 202 198 190 81 101

GFSFLT2_con_3kmhel_042.txt.gz
Helicity
208 181 133 134 141 121 107 116 160 109 49 29 8 6 15 26 35 41 48 52 59 53 56 58 79 61 54
187 176 172 159 132 105 147 187 177 109 58 63 42 9 -13 -15 -5 13 34 45 51 53 54 62 57 64 55
216 206 216 143 130 128 144 165 177 108 125 58 26 23 7 -4 -12 -24 -34 -38 -8 17 29 48 60 62 55
234 216 212 144 140 129 123 161 155 219 204 108 127 90 63 40 23 9 -16 -33 -36 -38 15 38 54 48 54
206 131 131 124 127 112 129 192 238 252 214 189 260 247 218 139 92 45 12 -4 -8 -4 -19 -35 51 54 70
141 153 154 106 150 169 181 110 195 199 191 217 233 249 247 223 111 37 21 -2 -20 -29 -22 -24 -21 33 61
119 92 122 149 118 78 126 161 199 247 117 212 236 279 262 245 141 88 43 11 -10 -12 -13 -15 9 17 7
97 120 126 84 71 57 55 83 198 225 149 245 244 308 285 372 237 86 81 79 52 16 22 33 29 17 21
55 58 51 41 39 67 49 -33 55 172 193 186 275 345 342 413 283 181 170 114 68 45 39 60 52 13 19
74 69 71 106 56 106 129 78 68 118 208 210 249 228 232 364 340 294 265 192 88 58 39 31 20 75 101
89 108 124 131 137 139 133 147 166 219 261 152 257 237 247 365 377 349 275 269 206 162 75 33 27 30 108
92 115 119 132 150 132 138 160 196 224 228 199 252 230 267 324 349 367 317 295 268 201 192 170 79 53 32
103 124 133 150 156 134 127 130 153 200 194 196 224 235 258 252 281 316 286 295 155 253 285 288 222 160 86
133 152 156 154 170 155 148 131 135 122 144 174 159 181 196 200 180 306 311 267 277 175 156 73 125 114 56
137 141 155 158 189 150 150 131 101 48 152 181 127 113 145 173 183 249 223 150 186 204 157 127 112 98 60
144 158 173 172 173 174 147 139 97 66 119 125 136 128 143 71 139 148 101 141 180 164 178 173 122 145 98
164 184 177 177 122 158 153 141 146 83 110 84 94 53 119 111 181 22 175 174 133 132 179 163 143 108 119

GFSFLT2_con_3kmhel_045.txt.gz
Helicity
184 135 101 75 70 79 77 119 125 37 29 14 11 2 -8 0 1 -3 -8 29 50 52 50 48 35 32 31
153 154 107 70 79 105 139 90 104 76 41 15 33 -1 -8 -6 4 9 2 -3 -16 -26 6 50 50 43 32
190 204 131 121 129 97 84 63 99 89 46 64 60 31 19 14 5 -5 -11 -17 -18 -4 -1 -13 11 51 49
201 168 142 110 112 81 63 89 97 114 114 76 90 70 68 65 46 23 -2 -8 26 14 2 8 8 6 43
150 112 124 105 70 84 130 116 120 124 93 71 172 182 195 119 87 47 38 48 56 58 58 22 13 8 13
119 119 102 90 106 131 129 -1 34 113 110 144 176 192 197 199 127 85 57 31 37 45 49 45 11 15 15
103 100 48 104 108 80 106 121 163 180 103 107 188 200 212 253 172 100 42 59 53 39 44 60 52 -10 -2
83 108 105 95 81 113 124 113 195 176 115 172 205 205 219 313 186 83 99 70 48 40 44 46 45 49 -7
51 47 27 24 59 127 136 133 144 126 165 121 186 198 224 332 241 170 144 97 67 43 33 28 15 7 6
68 57 40 47 48 84 114 124 124 107 129 133 162 124 100 257 293 253 220 148 94 79 51 33 32 72 83
59 60 64 70 74 75 77 112 125 177 228 86 183 180 170 259 323 280 225 252 225 147 80 72 78 80 127
67 96 91 100 115 111 91 118 145 183 185 153 213 164 210 263 316 254 244 222 185 158 200 191 116 69 68
91 111 119 128 130 114 122 117 140 172 170 140 150 163 180 272 295 213 196 230 126 181 176 194 162 138 102
114 125 123 112 120 104 114 111 116 163 140 112 78 78 139 175 133 196 237 198 237 186 190 175 141 80 66
116 117 114 102 115 79 100 103 115 137 139 132 95 86 106 159 143 190 237 223 179 177 175 177 146 90 69
118 124 120 116 96 43 70 107 121 129 114 114 103 102 111 108 123 164 166 214 222 152 137 143 138 118 58
137 145 142 141 62 76 60 114 133 119 126 66 73 56 95 132 161 49 170 208 205 144 94 152 128 107 95

GFSFLT2_con_3kmhel_048.txt.gz
Helicity
195 150 118 101 109 118 107 85 103 46 31 8 8 -8 -11 -12 -16 -16 -13 -10 -3 6 11 20 31 15 16
162 141 123 95 99 75 96 86 79 40 22 9 16 7 3 -21 -21 -4 10 24 18 30 22 14 9 21 18
179 160 139 112 95 96 68 62 62 33 12 22 23 1 -28 -24 -13 -5 -8 -24 -32 40 39 42 33 25 18
178 186 140 107 91 82 66 59 73 57 71 26 12 38 29 40 29 21 8 13 47 56 50 44 37 41 33
189 153 109 89 64 53 32 72 74 71 101 88 83 135 148 94 73 52 54 51 47 45 40 37 38 32 22
138 121 76 72 62 29 62 56 81 66 72 168 115 159 190 175 102 72 45 19 33 47 45 43 42 40 36
98 87 80 70 74 61 68 113 143 148 90 169 130 175 166 174 171 117 43 34 49 56 54 48 41 34 37
74 70 82 99 75 52 64 82 133 125 79 123 106 137 158 223 131 67 85 59 38 45 49 34 30 36 38
27 29 24 10 40 94 98 79 92 104 116 70 87 115 108 227 160 77 78 48 45 56 43 39 39 39 47
53 50 45 44 36 81 115 118 116 90 111 72 91 61 110 189 198 167 177 97 47 40 19 13 20 79 109
62 59 58 63 71 76 99 129 142 171 208 85 124 93 130 139 172 174 174 164 119 83 68 67 47 51 124
74 77 78 89 93 88 82 111 145 173 167 136 199 132 53 113 140 88 117 138 144 112 133 152 117 73 46
86 93 106 109 94 94 87 94 110 136 152 144 142 109 47 88 155 191 59 206 157 140 117 150 145 163 138
99 108 107 95 101 94 87 79 90 134 116 110 110 65 71 88 88 128 102 151 239 174 159 155 167 159 155
106 106 103 98 113 101 100 52 89 91 116 108 94 51 57 84 140 113 150 186 177 157 158 121 126 112 96
101 107 111 114 110 113 107 68 51 57 92 98 61 65 70 73 60 130 148 143 124 128 128 89 113 95 83
109 121 116 112 81 119 102 100 61 66 78 71 31 16 55 93 119 111 134 105 111 111 95 87 132 125 103

GFSFLT2_con_3kmhel_051.txt.gz
Helicity
239 237 176 142 124 96 116 105 113 66 20 23 19 11 9 -2 6 5 2 4 2 4 16 20 22 24 18
223 184 132 127 93 113 109 151 102 57 20 14 8 8 12 9 10 -8 -23 -18 -13 -9 11 21 12 17 24
218 170 161 134 101 134 96 105 106 42 19 13 0 2 -7 -9 -13 -19 -10 -9 -7 -12 -19 -7 25 14 6
191 181 147 124 114 106 106 88 84 84 58 52 29 32 38 4 4 12 3 -7 -6 -11 23 39 30 25 26
172 161 120 108 98 94 92 93 105 100 99 132 132 168 154 84 52 38 22 13 8 -7 -3 11 20 25 25
149 134 112 108 97 86 91 100 87 82 86 169 130 174 157 141 62 47 39 23 2 -7 8 32 44 50 36
117 115 111 82 102 130 103 107 123 141 88 151 141 158 117 118 97 132 78 27 3 -1 11 46 60 70 67
105 109 100 114 133 122 114 131 142 145 116 149 134 121 102 164 109 58 66 65 21 3 -8 15 42 50 55
43 26 21 14 43 111 129 128 146 146 158 139 123 139 112 163 150 129 133 108 18 -9 -13 -12 15 20 40
75 66 61 64 25 73 119 146 150 146 153 127 112 91 75 208 186 180 160 81 11 -12 -34 -17 13 77 118
85 87 86 84 91 95 99 129 145 177 155 87 141 124 156 137 145 202 144 99 56 37 57 54 54 40 73
96 100 104 101 106 100 98 122 156 177 156 135 197 163 165 109 151 173 141 90 22 26 80 159 72 34 30
111 117 127 127 120 124 119 124 121 148 159 123 177 156 163 130 156 192 78 84 47 94 115 143 120 144 160
114 137 140 123 124 120 123 126 128 154 126 131 106 103 113 107 88 127 94 44 115 89 68 93 118 145 144
134 139 136 128 127 124 130 132 133 90 52 89 90 105 99 68 88 98 98 95 65 72 29 92 105 107 166
139 139 139 135 133 132 119 130 143 125 30 13 37 33 44 30 0 47 54 77 81 62 44 80 119 82 98
143 152 153 149 100 130 132 123 116 106 67 24 -8 -17 16 85 125 45 -12 77 73 73 42 90 112 119 76

GFSFLT2_con_3kmhel_054.txt.gz
Helicity
216 198 206 177 161 161 128 133 118 55 20 21 18 22 3 9 22 13 13 19 22 23 28 20 30 28 23
234 217 191 162 153 144 128 124 85 46 27 4 12 10 9 9 1 12 16 26 38 32 28 22 18 13 11
232 202 187 168 147 143 109 107 107 39 23 19 22 15 19 18 15 15 11 8 11 17 23 25 22 20 20
228 198 159 131 141 125 109 113 95 107 67 46 38 37 37 45 30 36 28 12 -1 -3 7 21 25 25 25
182 165 136 129 110 129 133 115 119 100 104 139 109 143 129 69 79 79 59 33 11 6 10 13 22 29 21
163 145 124 126 134 140 142 125 138 104 100 137 127 129 143 131 80 70 65 46 36 30 13 10 16 18 17
120 121 114 127 142 156 160 141 138 134 124 128 141 127 136 126 83 119 108 74 50 39 29 16 10 9 8
108 112 118 98 108 122 123 139 135 130 120 154 161 141 109 140 133 61 91 121 106 73 38 17 6 -3 -13
27 25 26 15 49 107 113 121 138 131 141 135 125 120 89 134 135 110 180 184 142 86 39 4 -21 -20 -3
79 70 68 101 38 92 118 142 149 136 164 129 116 83 32 160 165 183 189 193 144 101 14 -12 -22 -18 20
89 108 114 111 119 116 108 133 148 173 181 113 160 123 122 83 144 171 193 220 178 98 42 -2 -2 -2 -4
108 120 129 133 124 122 121 134 158 170 167 153 193 84 15 44 101 139 183 173 79 52 9 30 48 53 44
113 125 133 151 140 127 121 134 132 163 180 144 142 75 65 57 69 118 99 148 75 26 29 67 63 91 107
120 131 142 137 138 136 134 132 134 143 144 145 129 94 67 121 94 81 81 50 100 57 50 108 38 130 128
128 133 143 140 150 137 139 127 118 93 104 115 115 126 141 100 52 53 32 80 55 38 2 47 105 139 128
145 150 151 155 148 141 140 120 125 48 11 56 37 63 67 47 -9 -21 37 51 50 27 27 31 104 119 111
153 165 177 180 121 151 145 148 120 22 28 83 35 26 50 100 90 -36 -29 38 34 51 3 44 80 98 53

GFSFLT2_con_3kmhel_057.txt.gz
Helicity
199 176 196 171 170 166 145 156 137 63 53 38 53 50 37 38 32 29 23 31 29 40 41 42 47 50 48
178 184 189 177 171 177 171 156 127 63 27 29 28 33 27 31 41 33 40 41 50 38 31 44 55 62 57
210 203 208 157 166 167 169 133 133 58 30 30 33 28 41 46 50 53 38 36 42 35 31 29 32 39 49
234 221 161 132 145 159 121 130 126 104 74 46 23 65 58 58 54 51 57 62 42 32 16 20 24 35 34
233 192 154 150 144 124 134 131 119 91 89 120 126 145 126 78 58 55 72 80 66 37 29 21 19 23 30
209 169 151 129 126 127 147 130 114 73 122 109 123 137 132 128 48 53 80 68 70 59 43 31 24 27 25
154 139 125 119 131 140 137 135 128 124 122 134 122 127 145 115 65 68 76 87 77 78 68 55 33 29 27
131 120 119 104 97 101 101 128 143 133 124 161 142 134 115 139 75 24 68 111 116 113 76 59 33 19 14
30 34 37 25 51 108 117 125 133 126 122 138 147 134 109 109 91 47 143 153 156 125 107 83 49 24 16
78 63 62 83 49 103 140 147 146 122 144 149 119 100 37 135 137 136 172 178 147 144 118 78 47 21 34
45 65 75 89 103 111 130 136 136 157 153 99 146 135 150 119 112 130 146 196 193 177 142 77 24 -18 -11
72 86 98 112 117 113 112 125 150 150 147 133 175 149 150 137 57 101 141 168 139 154 80 47 25 -16 -28
93 105 120 134 121 121 122 130 134 151 161 153 161 144 153 141 41 88 77 112 76 18 10 -3 -14 -34 -23
119 132 126 127 127 124 124 123 119 144 142 148 131 129 120 133 58 49 55 30 71 83 23 -1 -19 -37 -31
118 124 126 124 136 133 140 141 130 131 111 131 133 143 156 128 51 53 49 79 88 65 -2 -2 -13 -1 21
131 136 145 153 147 136 143 136 144 137 69 40 24 19 29 79 51 83 123 85 80 31 -17 -37 39 41 107
142 166 175 178 123 164 160 153 160 96 93 65 25 -11 58 124 101 54 -2 85 44 30 -6 -10 2 56 51

GFSFLT2_con_3kmhel_060.txt.gz
Helicity
200 176 178 158 169 176 175 193 185 109 109 96 81 88 84 69 67 56 55 53 41 41 39 50 45 52 59
200 194 188 177 185 168 214 209 203 124 85 62 59 61 53 60 63 71 67 62 70 64 50 45 50 61 67
189 212 207 192 156 187 197 180 169 79 47 47 60 55 51 59 64 66 63 68 66 58 41 45 50 52 53
209 219 213 149 175 201 195 151 141 118 92 49 37 44 66 62 61 55 57 66 67 49 34 33 36 38 38
219 243 187 179 200 178 157 131 117 114 103 87 117 127 150 103 71 57 65 73 77 58 31 29 27 37 34
225 210 201 177 163 147 140 115 78 74 104 88 104 126 133 128 48 40 48 57 68 65 50 35 37 33 34
208 184 166 139 144 137 121 112 112 108 105 106 119 118 124 116 46 45 38 55 69 69 71 60 55 41 37
164 150 139 118 110 102 89 112 130 124 110 130 116 146 118 135 69 1 13 49 82 96 87 65 32 28 26
53 45 51 44 55 108 120 116 121 115 102 103 119 126 118 119 73 2 45 64 84 97 81 55 30 31 29
99 66 70 89 49 107 134 135 125 95 92 130 113 92 34 128 84 169 131 98 55 66 53 43 37 64 59
74 85 89 95 104 115 125 142 127 159 148 99 154 134 149 167 107 105 132 139 135 109 69 62 71 86 72
81 90 100 106 100 105 107 113 140 146 131 131 183 159 153 135 22 71 121 148 126 128 139 106 74 32 1
95 110 121 124 113 114 113 112 139 146 151 143 171 147 155 -22 -2 43 50 123 110 84 87 107 -4 -22 -18
116 121 119 124 133 147 143 123 119 133 145 137 129 100 22 59 69 93 69 52 96 56 47 3 -7 -6 -9
116 120 131 144 165 165 172 164 162 133 114 126 99 103 109 104 62 118 71 63 89 92 56 49 34 23 -11
124 147 167 165 165 161 151 140 128 117 102 98 60 39 52 103 128 130 154 140 120 90 70 30 44 4 -23
149 163 165 169 128 175 172 178 183 167 182 159 128 100 96 153 143 112 105 140 89 71 29 10 11 36 6

GFSFLT2_con_3kmhel_063.txt.gz
Helicity
195 181 170 140 124 136 131 157 170 116 138 146 145 133 130 99 84 77 62 74 62 66 59 56 45 56 57
196 183 161 150 156 158 155 150 180 148 126 130 127 112 91 83 80 73 86 79 77 79 66 46 44 51 49
175 173 174 175 174 166 167 182 195 132 109 112 94 97 90 82 72 68 61 60 62 63 55 39 33 33 49
182 193 196 164 180 169 198 183 183 153 110 70 56 65 71 69 57 48 43 49 61 67 65 57 41 38 44
185 210 183 159 178 187 197 188 149 115 135 97 125 153 157 88 75 52 52 56 54 60 67 58 42 37 28
224 188 181 188 181 175 185 158 115 78 137 128 110 127 151 127 45 24 34 43 50 53 58 55 57 54 49
189 177 190 159 165 160 135 133 147 140 118 126 115 134 138 104 35 38 42 35 43 55 57 63 71 65 53
186 170 158 127 110 112 114 132 154 145 115 149 111 143 104 116 60 18 11 25 47 54 71 81 61 37 19
83 59 47 40 62 121 133 136 136 133 124 112 132 102 100 92 24 -16 5 37 61 60 69 75 62 37 38
99 60 62 78 53 115 145 153 141 122 107 135 131 81 22 81 76 142 117 68 37 39 48 39 32 56 38
70 83 90 99 107 121 137 164 172 230 187 136 189 142 162 149 144 149 139 123 146 132 62 -14 -12 -2 -1
76 91 105 112 117 129 136 159 197 207 163 149 207 165 139 65 19 82 141 179 175 141 124 34 -8 14 21
85 109 123 137 136 143 154 161 173 177 171 136 127 86 90 100 107 139 55 154 154 80 50 47 32 128 17
102 111 124 137 141 148 163 151 157 167 160 137 112 118 125 146 144 173 143 159 170 102 35 10 -14 -29 -44
106 115 130 137 153 150 175 176 206 194 175 137 129 159 189 145 136 183 171 127 122 94 37 59 48 36 10
117 134 144 141 151 157 166 188 192 194 188 184 161 127 119 150 196 201 219 197 178 143 116 83 83 48 33
134 148 149 166 128 179 177 185 203 206 224 229 220 213 189 223 224 164 182 258 177 131 114 78 55 71 19

GFSFLT2_con_3kmhel_066.txt.gz
Helicity
172 162 152 132 127 142 132 144 142 83 112 136 160 153 127 142 126 111 104 81 81 72 87 83 76 49 49
150 142 133 128 129 128 123 136 157 111 93 128 148 118 113 101 94 80 76 88 77 69 61 44 35 29 28
148 133 133 127 131 143 165 165 166 100 81 115 129 105 99 88 83 92 76 60 52 54 48 34 20 18 19
155 159 137 112 160 161 157 172 166 154 110 85 51 63 72 65 74 70 57 43 40 37 28 26 27 26 25
141 154 153 134 160 166 185 163 151 117 122 128 141 165 186 123 97 63 54 49 44 40 38 37 42 32 31
182 172 175 173 175 167 169 141 134 106 138 164 138 164 183 151 56 32 41 43 50 54 55 58 54 44 37
178 166 178 154 152 149 123 140 147 153 140 183 144 178 145 128 34 30 32 38 43 53 61 55 52 52 52
174 153 152 126 118 111 114 144 166 155 160 224 161 182 150 151 44 -26 2 21 34 43 46 64 70 59 47
81 65 46 33 63 114 132 140 146 151 165 169 214 200 184 127 33 -32 -9 40 57 51 41 51 59 59 84
110 70 67 71 54 111 150 153 157 153 184 262 237 195 182 249 210 184 129 72 37 41 46 48 53 87 57
63 69 78 87 100 115 140 189 178 224 230 185 317 245 303 295 273 240 201 177 180 133 59 5 -29 -56 -26
57 76 92 100 112 122 123 142 196 222 188 174 287 261 273 272 275 237 206 234 174 129 89 32 -21 -33 -38
60 85 100 117 129 135 136 149 180 198 190 187 222 206 234 268 273 260 173 189 142 97 77 51 36 -22 -33
76 88 97 130 128 139 148 138 137 152 162 175 188 218 237 230 246 285 231 204 149 116 85 66 51 39 24
80 84 104 110 131 130 155 153 172 172 174 174 176 216 260 220 182 242 229 222 234 212 141 110 103 103 92
93 117 128 135 135 135 141 153 172 187 188 198 176 169 181 209 249 300 327 303 276 232 194 157 169 133 104
125 143 151 167 125 176 170 171 193 202 222 208 190 177 175 219 254 240 286 297 247 230 221 211 163 159 85

GFSFLT2_con_3kmhel_069.txt.gz
Helicity
141 107 107 97 96 100 99 100 91 68 77 98 107 102 106 105 93 85 79 93 79 65 57 75 78 99 90
104 90 89 80 80 78 78 92 98 77 73 116 122 107 92 86 71 66 62 68 83 82 75 66 64 56 46
79 82 87 62 58 75 92 100 111 80 89 101 70 62 51 42 58 67 64 54 56 53 50 44 42 31 23
84 92 82 81 92 85 103 109 118 97 87 50 39 37 36 61 69 64 65 66 59 55 55 46 35 31 33
102 105 99 93 107 116 119 119 122 95 70 64 96 106 127 91 73 64 70 73 76 75 65 50 47 46 43
110 91 110 128 138 132 126 148 131 58 74 89 107 102 94 84 56 51 47 47 44 51 59 58 55 43 30
128 133 137 121 128 131 108 88 89 123 96 106 98 88 83 102 58 45 25 42 58 65 55 50 48 45 51
141 127 123 115 101 79 70 71 86 90 76 122 75 96 87 106 62 -10 -10 41 43 28 12 32 58 56 48
115 107 88 50 50 64 72 84 96 85 81 78 109 97 105 113 73 69 80 56 39 16 -12 -38 -53 28 50
147 112 66 43 39 70 77 92 97 95 120 139 122 92 97 169 156 193 136 89 54 47 27 -10 -36 -99 0
79 52 43 48 65 70 77 102 129 167 165 128 208 165 211 222 199 193 173 168 102 76 34 7 -11 -43 -77
32 35 44 58 67 66 67 89 134 177 160 136 246 207 210 205 232 203 189 187 130 77 35 12 8 -9 -31
31 45 59 60 67 75 84 101 129 154 162 141 174 173 191 215 230 238 167 166 110 83 72 56 41 -3 -21
46 47 50 58 71 78 96 97 96 114 118 135 149 162 199 215 208 261 205 202 176 184 157 149 119 81 67
38 41 50 55 80 92 118 116 125 141 132 145 141 160 209 190 207 212 220 239 255 242 193 207 165 132 108
50 60 68 75 99 107 117 124 141 151 154 159 144 134 114 155 210 285 268 286 305 246 257 310 318 191 147
68 79 87 98 89 128 139 141 151 158 171 166 147 134 117 130 119 96 151 161 113 124 141 182 231 230 172

GFSFLT2_con_3kmhel_072.txt.gz
Helicity
206 136 141 94 78 84 83 84 87 51 38 63 74 64 57 65 76 97 83 70 56 67 42 39 41 55 88
131 144 105 116 119 100 120 105 101 68 66 78 76 91 89 89 106 76 53 39 38 42 46 51 53 69 71
150 119 95 89 80 84 87 80 83 60 92 120 115 117 88 81 56 35 37 43 50 58 60 62 63 59 58
107 102 95 72 83 70 85 85 80 101 120 107 88 77 55 55 32 33 45 53 67 78 82 82 74 72 61
104 92 93 80 92 111 100 114 118 125 149 115 98 86 81 61 52 46 54 67 86 86 92 83 87 99 83
106 85 99 127 128 125 126 141 169 107 112 81 62 71 71 61 35 30 35 51 66 66 82 90 103 107 94
107 110 120 122 169 137 131 144 124 61 53 60 68 61 57 59 34 46 40 41 65 81 91 87 86 106 97
126 125 125 119 123 113 97 75 49 55 60 69 52 57 59 87 64 26 20 47 77 86 93 93 72 76 84
100 93 88 69 59 66 50 51 63 67 61 47 59 72 93 114 59 44 77 61 69 63 43 54 54 46 67
134 98 53 37 35 53 77 84 82 77 84 89 87 65 66 129 100 111 89 79 58 54 38 51 54 98 103
60 36 34 46 66 79 81 102 116 154 128 103 155 135 178 205 174 158 139 129 103 82 37 26 54 89 121
10 24 41 54 62 66 64 93 127 138 121 109 189 154 166 174 199 163 177 152 104 96 80 54 41 39 59
28 41 45 44 42 51 67 75 91 111 127 126 157 161 184 214 229 203 114 111 97 76 83 94 106 91 78
43 41 41 48 57 64 66 63 66 79 107 117 147 173 180 186 201 212 168 146 135 122 87 103 138 163 164
44 47 49 56 65 70 84 89 103 94 96 114 126 157 211 196 175 177 163 151 130 98 89 152 180 174 194
50 55 58 64 70 81 84 104 110 116 118 122 113 129 129 152 182 196 175 162 138 89 81 76 108 141 152
59 66 75 82 75 89 107 115 116 117 124 156 143 134 128 129 106 103 99 120 84 85 94 111 124 149 117

GFSFLT2_con_3kmhel_075.txt.gz
Helicity
268 257 238 190 150 130 114 139 115 78 56 43 40 47 51 38 58 65 52 60 62 58 57 65 62 72 85
190 166 140 126 162 126 96 93 99 71 50 61 64 77 74 79 84 67 64 56 56 51 57 58 61 57 49
181 173 134 117 106 95 97 98 91 66 67 82 93 109 92 77 56 39 41 44 51 62 63 58 49 42 35
135 131 117 92 83 83 90 113 105 91 96 90 82 78 68 53 39 42 53 64 80 83 78 69 53 41 34
107 100 118 97 105 136 124 108 97 94 120 121 119 111 92 70 59 48 62 81 78 67 60 57 56 52 46
117 110 90 129 160 137 144 127 127 101 163 129 106 102 97 92 35 43 62 70 65 64 77 72 59 53 54
106 107 118 126 172 128 118 130 123 112 80 71 114 92 92 92 31 42 57 50 48 60 71 75 77 71 61
133 129 136 140 133 121 107 83 71 66 62 79 99 83 89 110 68 25 22 52 82 83 85 84 80 72 59
112 88 66 53 42 63 62 59 65 82 83 69 99 102 115 122 92 22 49 47 49 49 63 59 55 51 68
124 78 41 35 23 72 81 77 88 89 107 124 121 83 63 175 110 141 119 73 44 38 36 40 42 101 115
48 30 37 53 73 86 101 109 116 152 156 101 177 119 148 181 163 163 124 112 116 91 47 20 19 42 90
19 39 59 64 67 69 68 90 124 129 106 126 208 177 181 168 209 157 141 117 94 95 82 39 9 10 30
36 43 51 55 51 62 73 79 89 106 117 130 172 194 204 209 211 168 114 111 100 68 77 56 51 73 97
42 45 47 59 68 75 75 74 92 99 112 123 140 171 205 224 236 205 174 151 125 114 86 104 115 147 159
44 56 59 66 76 80 89 90 108 89 81 91 106 128 200 228 227 233 174 147 165 177 148 152 125 146 164
48 52 56 68 77 93 108 111 108 91 106 110 113 118 138 174 171 200 194 199 176 135 111 93 85 108 122
64 60 61 80 68 100 115 117 111 101 127 135 130 134 142 149 152 141 164 179 147 143 141 146 121 105 87

GFSFLT2_con_3kmhel_078.txt.gz
Helicity
179 158 135 142 147 146 136 125 108 67 78 77 73 75 59 43 37 36 43 49 57 72 88 98 103 89 83
126 119 106 147 140 121 109 103 98 78 62 66 71 69 61 64 66 68 75 84 98 106 100 91 75 61 59
150 161 116 115 117 105 112 103 100 70 93 92 94 84 77 82 87 88 89 89 82 69 68 53 44 47 46
125 117 111 107 108 107 107 108 93 102 101 83 117 112 111 99 84 82 78 68 61 59 49 42 40 37 34
117 106 106 99 97 113 111 108 97 107 123 126 138 120 82 65 44 39 39 48 58 54 47 46 48 33 28
84 85 88 109 117 117 103 105 122 113 177 136 116 80 103 108 41 35 50 58 59 54 50 41 41 42 31
103 113 111 133 126 129 134 121 111 102 75 71 91 88 111 73 43 51 53 52 57 63 66 67 62 53 43
138 127 131 120 112 85 69 41 46 61 74 100 96 77 88 118 80 22 39 54 68 76 72 66 65 60 46
126 88 52 28 17 70 66 76 47 68 98 86 73 54 65 92 76 40 94 81 74 69 64 66 54 42 62
87 42 11 19 20 63 97 95 69 78 44 69 78 31 24 116 136 119 104 80 66 67 52 42 40 65 61
20 19 30 48 65 72 90 90 89 128 119 83 130 62 118 142 127 140 106 124 136 87 57 38 37 49 67
33 38 47 51 55 57 57 70 96 108 100 125 195 164 168 155 144 139 148 151 135 155 102 49 27 15 14
42 45 44 47 52 66 83 89 97 110 105 110 162 158 197 210 170 188 145 137 111 97 140 135 126 111 95
51 39 42 52 59 69 66 68 68 74 94 115 137 157 164 193 204 212 182 182 161 167 166 145 136 152 152
53 50 53 55 64 65 74 81 96 84 84 93 113 147 189 184 187 180 158 185 206 189 152 127 125 133 154
64 69 69 74 78 84 94 97 94 93 95 107 120 127 135 174 163 188 182 202 200 174 149 110 101 101 79
74 80 83 89 63 81 92 95 97 95 110 130 133 134 124 142 157 102 159 181 162 179 199 171 138 131 57

GFSFLT2_con_3kmhel_081.txt.gz
Helicity
219 135 140 171 193 153 138 121 111 77 64 74 76 68 66 70 74 80 81 89 98 106 114 118 120 112 113
167 156 149 141 141 126 102 89 89 73 78 91 95 86 85 82 92 97 107 105 104 105 107 101 97 82 68
171 162 138 147 112 89 87 95 106 108 115 112 110 92 105 122 128 136 122 118 109 108 87 68 55 50 46
165 170 173 113 111 115 129 124 129 123 112 131 130 123 114 102 95 99 89 81 76 62 44 34 30 31 27
117 126 102 117 128 144 137 131 146 137 176 149 126 95 100 51 46 49 53 63 68 68 63 50 44 36 24
99 107 116 133 142 143 141 158 154 122 49 137 71 85 91 85 49 64 78 82 82 76 59 46 38 30 27
107 113 134 151 153 146 107 77 69 72 55 94 76 88 70 73 61 50 64 76 78 70 67 61 50 39 31
148 142 140 118 100 72 44 55 73 84 73 93 65 75 78 123 41 48 65 88 86 74 62 55 47 41 32
143 101 66 22 5 74 66 96 84 102 98 64 53 74 65 88 63 64 105 84 87 79 65 52 45 39 59
95 56 31 32 66 70 77 92 78 86 59 50 72 25 41 72 123 113 114 97 74 69 51 60 69 89 72
52 37 46 54 55 58 64 66 77 87 73 74 115 77 118 111 146 159 134 157 155 121 106 88 67 54 56
55 58 53 57 54 46 53 60 71 80 79 96 126 102 102 106 128 129 142 128 111 140 123 83 66 41 17
63 56 65 57 52 55 64 67 66 80 92 89 131 133 154 160 160 120 59 99 87 79 144 138 126 113 81
56 58 57 61 68 74 78 79 73 94 87 91 100 139 152 172 178 159 111 126 117 134 156 135 119 139 136
70 67 67 71 82 90 97 92 99 91 89 117 123 136 167 162 162 155 119 128 156 186 162 154 120 101 99
71 75 79 82 84 91 102 122 93 98 108 118 114 94 77 123 124 113 151 178 195 185 185 176 115 96 104
83 86 85 86 69 96 114 109 94 105 113 121 119 90 0 16 121 70 151 171 153 150 161 176 131 117 81

GFSFLT2_con_3kmhel_084.txt.gz
Helicity
250 211 253 199 197 189 154 144 135 82 81 78 76 74 70 72 79 91 88 90 97 102 119 125 107 109 100
218 271 233 209 200 157 144 139 122 87 77 78 101 94 79 86 87 83 85 118 124 119 115 101 103 104 99
193 223 231 236 195 139 117 114 120 126 129 110 88 81 104 120 123 129 141 136 116 106 90 75 69 67 67
195 181 173 141 141 117 116 143 140 125 119 125 128 114 120 126 123 115 104 92 72 54 39 29 27 28 24
138 135 131 127 124 129 139 141 138 144 150 127 110 102 83 59 57 56 58 58 60 59 47 36 34 33 24
111 124 123 135 152 156 151 144 121 82 48 88 54 92 92 101 74 64 67 67 66 62 48 36 36 28 23
134 143 160 159 167 145 101 81 81 75 55 106 88 98 85 92 57 67 100 106 105 100 86 64 43 22 18
155 159 148 119 110 78 56 69 72 85 83 84 81 97 96 126 81 114 119 133 100 89 76 60 41 28 18
164 122 85 47 20 70 73 94 79 95 100 91 79 77 79 85 94 103 110 119 112 97 65 50 34 27 38
147 118 77 46 51 65 73 95 91 96 90 73 90 61 52 72 93 129 136 109 94 83 62 56 51 65 63
115 77 50 59 64 63 71 92 94 100 82 90 106 96 99 102 107 156 132 147 142 117 100 81 51 49 61
100 62 65 68 62 52 57 65 83 87 73 78 112 119 105 106 110 111 119 119 116 137 140 79 73 54 52
85 68 60 56 53 62 66 63 72 82 77 102 109 105 106 111 118 92 53 78 102 94 124 119 130 114 108
85 73 64 68 79 78 85 86 83 105 98 100 117 148 122 131 123 104 92 90 108 121 140 147 143 142 124
106 98 94 95 98 96 92 94 103 85 106 138 142 145 139 126 101 114 72 88 121 148 133 98 95 109 119
122 112 110 111 109 117 119 125 105 107 117 129 132 112 82 74 100 84 96 113 158 152 150 149 129 116 127
136 130 118 118 102 119 131 125 104 114 117 128 134 108 59 58 108 20 81 112 66 99 150 161 154 138 126

GFSFLT2_con_3kmhel_087.txt.gz
Helicity
203 198 200 197 177 200 167 153 166 123 119 148 122 100 93 80 70 73 70 63 64 62 80 87 74 83 91
190 180 170 137 161 204 178 219 167 135 124 111 96 89 60 64 68 73 82 86 122 99 81 75 82 81 85
152 160 152 175 176 169 160 162 135 115 127 96 84 101 102 106 110 102 90 96 93 75 61 48 44 46 51
148 179 174 158 147 148 145 146 127 110 102 103 144 124 96 78 68 69 64 50 40 32 23 17 14 9 18
132 136 142 157 166 158 171 153 132 130 136 112 69 54 68 72 73 66 60 53 48 45 42 35 31 23 28
122 145 159 178 180 184 174 162 136 108 55 76 67 79 80 81 60 51 58 62 64 66 59 54 45 46 39
155 165 180 168 187 174 141 120 79 54 42 85 64 83 79 75 46 75 103 140 126 87 65 47 35 29 25
163 166 159 150 140 125 93 67 59 62 49 66 74 62 63 81 79 116 143 137 83 81 62 56 46 31 18
167 154 145 116 82 103 90 105 86 81 55 62 77 27 69 96 94 81 97 69 83 73 58 51 37 28 43
152 156 140 111 81 76 89 106 97 93 84 81 84 75 73 84 93 107 106 91 73 72 58 59 52 89 76
136 146 139 105 77 68 69 95 104 98 85 92 106 99 89 87 78 119 89 121 129 102 83 76 82 80 77
141 138 126 99 89 72 61 72 86 92 85 101 120 127 120 98 88 94 101 102 112 116 129 80 80 63 57
125 123 110 105 87 83 83 75 77 85 89 123 124 119 137 138 129 107 69 82 74 71 102 116 122 120 79
131 124 126 108 106 102 110 99 94 113 98 92 114 171 150 143 136 124 133 108 100 62 84 97 101 122 132
142 148 145 134 132 126 124 116 113 122 114 157 167 168 175 157 142 157 128 111 117 80 81 48 74 100 120
147 152 152 147 134 141 143 140 121 121 125 137 148 136 133 106 122 125 127 138 119 101 90 41 46 77 122
144 150 156 146 127 137 154 164 141 137 133 140 156 142 115 96 106 45 87 139 133 60 56 54 29 87 102

GFSFLT2_con_3kmhel_090.txt.gz
Helicity
187 167 158 166 170 152 151 131 148 141 132 123 114 114 95 95 100 92 92 78 70 66 74 75 73 73 84
179 149 140 128 154 153 150 129 146 127 122 102 108 118 109 89 78 76 89 92 79 64 49 42 43 53 70
159 140 135 144 159 160 149 133 127 133 115 101 103 115 113 101 87 71 48 36 27 21 11 9 14 18 19
137 128 127 132 145 144 133 140 135 123 113 120 130 115 84 43 34 36 35 29 23 23 26 24 22 22 22
120 115 124 137 146 156 165 151 150 145 150 142 107 55 43 58 57 42 32 24 27 30 28 25 25 24 29
114 128 130 150 175 177 172 181 178 141 118 109 43 66 64 64 32 27 28 34 37 38 36 34 42 43 35
122 129 145 152 184 187 175 174 141 82 75 105 59 73 55 48 23 45 62 95 124 61 35 44 39 36 34
137 139 148 164 169 163 154 133 98 64 45 108 83 80 84 49 73 92 98 120 80 42 52 43 40 33 24
134 139 153 141 142 166 138 145 125 102 64 85 93 58 75 85 89 110 93 69 62 67 34 31 31 25 42
120 132 152 169 166 121 124 132 124 122 88 91 89 68 83 86 99 68 74 63 63 52 46 48 45 68 63
104 118 134 138 131 104 102 119 126 119 88 93 102 102 93 81 66 102 112 122 142 100 68 60 51 48 59
101 114 122 121 121 114 108 99 99 101 93 117 121 129 122 98 103 107 99 124 118 127 117 71 44 33 28
95 100 104 118 122 109 105 99 94 102 102 115 117 112 129 141 162 133 98 119 110 62 99 106 90 81 33
103 102 108 115 127 134 144 138 129 148 121 129 131 163 157 153 158 154 149 141 133 110 97 94 93 110 95
115 112 104 118 129 151 153 156 154 155 165 193 177 161 163 164 168 170 167 140 121 115 111 60 85 107 95
122 128 125 130 134 156 163 173 154 164 165 180 186 180 156 117 145 156 136 142 120 116 125 80 50 90 100
131 134 131 135 125 149 156 167 161 169 168 199 201 213 198 172 125 77 125 114 131 107 99 119 89 70 62

GFSFLT2_con_3kmhel_093.txt.gz
Helicity
194 181 160 148 141 125 112 131 116 122 123 116 91 84 80 88 92 85 79 71 64 64 75 78 79 83 91
163 150 151 139 130 107 116 112 95 92 96 104 112 113 104 92 83 73 75 77 66 42 29 30 31 35 36
134 119 109 102 87 93 99 102 100 119 125 116 104 89 100 104 96 80 56 34 30 32 34 35 35 41 41
120 109 98 97 102 99 105 122 122 134 126 123 123 105 90 77 53 34 36 35 32 34 36 35 37 35 39
93 91 99 105 108 127 131 128 133 148 149 136 115 91 67 43 42 41 38 36 34 35 36 32 31 35 38
87 102 117 125 133 138 133 133 142 158 145 127 83 71 55 54 43 29 29 28 32 40 54 43 32 32 31
100 109 120 125 134 133 123 122 128 126 106 108 67 73 60 46 30 35 39 41 79 68 45 29 32 31 29
110 109 116 119 114 121 117 103 90 75 64 125 80 87 63 56 56 69 53 63 67 59 37 39 29 24 23
106 99 100 82 99 105 87 87 93 97 74 107 109 95 88 81 82 117 74 61 53 63 49 37 38 32 43
86 90 102 123 114 83 91 88 107 109 110 107 111 103 103 97 84 91 78 76 87 68 66 68 74 76 73
74 82 99 100 93 90 87 104 117 117 104 109 113 112 121 108 85 98 95 106 102 112 103 98 95 79 70
72 83 87 88 88 83 78 82 85 97 90 105 123 122 117 101 97 90 81 91 91 110 121 90 69 55 45
70 79 85 91 87 95 87 81 87 89 95 117 120 110 116 128 122 98 93 108 105 69 99 87 74 74 66
73 83 92 91 91 99 107 107 104 122 135 140 144 154 142 137 140 135 118 124 118 108 81 60 57 59 61
79 82 83 88 88 104 111 114 112 118 142 162 160 137 133 140 149 164 143 107 95 94 79 54 48 46 51
71 76 86 96 100 107 110 118 118 120 119 143 156 162 167 140 148 142 123 111 98 86 78 50 45 45 44
72 82 89 99 99 112 116 120 120 123 124 140 159 184 178 155 146 90 101 73 91 99 92 78 53 68 44

GFSFLT2_con_3kmhel_096.txt.gz
Helicity
217 187 169 150 140 133 149 132 126 148 127 103 99 94 88 90 97 91 84 84 84 95 108 113 99 77 80
176 158 152 148 128 102 100 101 102 102 101 97 104 112 117 106 101 91 86 93 109 114 88 64 60 59 57
162 139 117 87 81 74 67 75 86 108 99 106 102 101 108 111 103 95 93 87 65 49 51 58 57 54 51
118 108 91 82 79 72 76 94 103 108 104 114 111 115 104 94 78 66 49 38 41 47 50 49 50 46 40
104 88 88 88 86 103 106 106 102 118 108 112 113 96 78 53 29 41 43 43 43 44 44 44 47 56 58
90 86 101 107 106 111 118 104 112 113 116 100 83 65 44 40 66 43 28 29 35 41 65 68 52 50 52
90 98 99 104 130 118 111 112 104 112 83 77 61 49 52 50 37 25 32 48 64 100 64 47 44 46 44
106 108 119 111 115 104 99 91 76 77 73 81 75 66 60 49 66 59 70 69 82 65 53 48 38 34 35
117 114 105 94 88 91 86 83 82 83 77 85 108 99 70 71 78 86 88 84 51 47 49 48 38 44 43
71 72 65 90 85 75 83 87 86 80 98 106 119 124 129 108 90 88 98 79 70 70 61 48 57 73 81
60 61 67 78 81 90 100 99 91 91 112 112 120 125 137 124 101 96 99 98 111 105 94 88 99 90 95
55 59 66 76 82 86 89 81 82 89 96 108 121 136 136 121 118 112 107 97 105 113 126 126 97 67 67
55 66 72 88 96 80 72 77 87 95 102 113 120 126 135 144 128 114 107 113 102 84 110 115 105 104 99
60 73 86 84 78 81 85 93 96 109 134 131 135 141 136 135 136 119 119 133 127 106 106 105 88 81 83
61 72 72 78 81 86 91 95 100 115 135 153 153 138 134 135 145 132 139 132 120 123 129 120 90 75 73
57 66 70 75 81 95 103 103 113 123 135 149 162 170 168 148 142 135 132 140 144 144 119 116 99 61 66
60 62 68 75 83 94 104 113 118 118 122 144 163 178 176 167 161 127 136 124 129 122 120 108 101 68 61

GFSFLT2_con_3kmhel_099.txt.gz
Helicity
221 197 181 153 149 166 139 146 136 137 128 124 119 114 114 123 142 144 125 113 105 113 121 124 125 122 100
202 188 170 173 154 118 111 104 92 91 96 107 112 126 116 107 123 129 123 120 123 124 125 115 79 53 44
206 181 162 132 102 92 75 77 70 85 86 82 85 92 97 104 111 111 109 104 99 84 62 55 56 51 45
168 141 124 111 90 74 71 67 78 83 81 80 90 97 93 86 88 84 80 65 55 56 57 55 51 52 50
137 123 106 92 83 101 100 112 85 104 92 90 108 99 88 74 59 55 54 60 59 55 53 47 46 62 64
129 86 89 116 126 107 120 112 108 108 97 93 97 79 69 58 91 81 57 44 42 44 43 66 64 60 55
88 108 120 113 131 129 125 122 115 120 86 78 88 65 65 64 67 64 40 41 46 55 93 72 66 55 46
141 142 149 129 122 109 101 94 91 99 83 84 81 70 69 67 91 74 69 72 79 101 75 58 51 41 32
139 133 136 139 121 105 87 91 96 99 83 88 92 74 69 72 89 92 87 122 123 78 50 45 42 39 48
87 91 80 100 88 99 96 93 110 100 99 106 111 116 118 113 101 100 108 102 97 74 66 58 57 89 78
73 73 64 82 79 93 110 96 100 108 108 114 115 116 126 120 111 127 136 133 136 131 106 94 93 101 113
67 65 65 76 90 94 106 103 94 93 111 118 122 133 143 129 136 144 137 141 145 146 145 125 104 104 87
56 64 73 96 113 88 73 70 76 88 97 114 123 124 141 162 144 129 127 144 123 110 127 130 126 137 127
63 78 89 77 76 70 75 83 95 99 106 124 137 143 147 142 139 121 133 159 153 151 154 126 119 117 109
74 73 73 70 75 73 77 91 102 110 114 132 139 146 144 131 139 135 147 147 161 154 163 147 128 132 121
70 67 69 76 82 90 82 91 93 101 117 137 153 158 145 132 129 134 141 168 173 165 158 177 138 129 116
90 84 83 83 72 96 104 98 90 97 109 119 158 179 173 171 147 108 180 174 176 167 168 172 159 120 109

GFSFLT2_con_3kmhel_102.txt.gz
Helicity
238 188 184 181 194 167 135 128 131 134 130 122 109 113 103 116 126 132 142 140 139 130 142 139 130 123 112
242 231 191 172 168 151 142 126 90 92 87 87 96 111 109 117 130 131 131 131 130 121 117 112 106 82 60
232 226 199 173 145 132 95 82 72 69 69 77 87 87 90 101 111 114 114 111 100 87 76 71 72 68 63
239 196 177 149 123 104 83 66 65 70 75 75 86 81 84 86 82 87 85 76 68 65 67 67 67 62 54
234 187 163 137 109 88 92 87 93 98 88 81 92 89 78 61 68 63 62 64 69 65 64 65 60 66 66
187 162 103 106 113 113 124 121 102 95 87 71 85 78 64 60 74 84 73 61 55 57 64 65 86 72 69
139 110 123 98 115 135 133 125 114 91 78 67 76 68 54 63 66 68 58 52 58 66 78 110 87 81 80
151 131 120 119 113 111 111 115 109 87 77 80 79 57 56 62 67 72 73 87 89 116 137 105 88 76 62
131 132 135 121 117 140 123 115 94 82 79 75 69 57 54 57 71 87 95 107 142 140 112 93 79 71 84
111 126 130 99 119 105 93 90 107 103 69 88 83 89 91 97 106 109 112 98 102 104 111 115 97 111 114
79 91 93 91 96 97 90 91 109 109 87 100 97 96 101 92 100 117 122 124 132 137 122 113 127 131 131
81 79 79 76 87 96 106 115 110 97 102 101 99 105 107 92 117 126 107 113 125 135 154 146 139 131 123
78 75 77 77 97 94 85 84 74 67 77 87 105 96 103 116 113 116 110 144 116 161 159 158 145 146 145
61 74 102 107 95 70 78 70 75 67 71 82 100 117 105 100 107 95 118 142 150 142 166 139 117 117 124
82 108 99 86 52 76 78 71 73 74 84 98 109 112 104 111 105 123 119 140 167 151 149 129 124 148 169
83 95 99 85 77 96 96 81 77 75 91 101 123 121 103 88 91 107 125 134 151 151 173 160 101 124 153
91 88 91 92 76 114 118 113 94 90 79 96 117 131 126 122 108 75 158 179 153 134 175 157 137 125 124

GFSFLT2_con_3kmhel_105.txt.gz
Helicity
339 222 251 200 174 169 174 195 172 135 132 132 113 102 95 94 101 111 118 110 112 121 134 131 126 112 93
247 282 276 189 199 181 176 159 146 115 99 88 81 91 92 96 112 116 118 119 123 121 114 106 106 84 60
331 338 293 261 222 203 170 143 98 69 59 65 78 85 82 89 96 110 118 110 97 84 79 72 69 63 58
313 264 281 222 214 191 140 114 73 60 56 71 73 73 79 83 85 91 88 74 56 55 59 66 65 59 57
260 239 224 216 177 143 124 109 94 84 75 82 83 88 80 69 78 66 49 40 44 52 61 64 60 62 75
210 199 181 187 158 136 143 143 101 89 95 81 85 72 62 66 50 44 50 47 47 49 54 59 71 82 79
151 136 154 133 156 144 132 134 120 92 93 72 77 68 64 51 54 55 47 38 37 39 50 74 101 91 83
149 131 110 120 103 102 122 145 148 112 80 69 87 71 74 71 57 59 53 59 56 67 108 126 107 85 72
144 116 108 106 113 162 155 162 117 79 76 80 79 71 70 71 65 60 67 76 106 125 127 113 96 86 97
135 132 129 114 108 103 114 125 110 90 75 87 76 80 94 94 95 96 91 89 97 107 116 126 119 125 122
82 93 105 107 103 104 92 86 99 93 70 89 85 95 98 90 82 105 122 122 125 131 133 132 133 138 131
73 83 84 86 88 95 93 106 101 79 87 89 82 87 92 97 106 109 91 100 129 131 144 141 156 138 115
61 74 74 68 90 103 104 101 99 91 77 75 73 76 96 98 104 104 105 141 124 166 169 122 130 126 133
72 81 101 113 95 84 79 69 72 72 54 57 66 78 78 82 86 92 95 112 141 117 121 117 119 102 121
80 96 96 98 98 90 91 82 76 82 74 67 64 75 83 99 101 108 89 91 115 143 132 98 125 119 120
95 102 105 100 86 89 101 93 81 75 75 72 83 85 84 78 75 107 88 98 116 132 132 99 70 125 125
102 108 114 101 75 99 102 103 92 96 94 94 110 112 93 114 99 80 119 129 127 123 136 152 122 113 99

GFSFLT2_con_3kmhel_108.txt.gz
Helicity
289 274 264 245 222 211 216 170 207 207 196 172 154 136 115 91 87 93 77 87 97 93 103 97 93 87 82
284 265 224 218 200 224 191 187 168 158 142 132 107 100 106 95 86 83 96 99 102 102 95 85 79 81 64
258 277 281 284 267 293 217 222 179 141 127 106 80 78 78 74 81 86 89 90 85 78 67 64 65 65 61
270 281 283 247 258 215 202 193 163 137 103 77 74 73 69 71 69 78 77 74 60 46 47 52 59 63 56
262 261 262 276 195 158 173 185 153 124 92 88 90 87 83 89 78 68 62 52 33 32 41 50 56 51 60
232 199 186 158 172 188 211 192 129 108 99 97 95 84 83 73 58 62 57 34 34 36 41 49 52 63 65
183 168 165 134 190 214 190 157 119 82 105 94 103 84 85 75 61 67 49 37 25 29 39 47 62 74 80
198 160 114 133 162 140 147 144 146 137 115 84 98 88 101 91 65 51 49 43 38 48 54 77 98 91 90
186 156 145 130 124 155 144 159 124 107 106 92 86 99 91 75 74 56 59 57 74 80 104 105 98 95 121
191 211 183 140 106 103 107 130 131 103 88 101 98 98 98 88 98 104 93 94 95 88 93 110 126 131 118
122 120 115 105 100 103 103 100 124 103 64 109 96 105 115 98 105 108 119 117 112 114 120 124 128 118 120
85 86 72 78 89 89 97 103 97 73 84 94 90 106 115 117 102 119 114 104 113 117 123 145 149 112 100
88 72 53 61 94 100 97 102 115 108 89 86 94 100 104 102 108 120 127 116 101 118 155 141 123 122 128
69 67 78 92 97 95 91 95 99 86 61 57 68 85 90 81 95 105 111 133 126 114 92 93 119 117 119
66 72 74 101 106 98 100 99 88 79 88 83 71 69 82 90 102 126 139 118 112 114 113 95 110 116 109
65 92 99 108 110 111 113 113 102 82 73 79 90 88 89 76 69 123 130 112 112 106 103 86 79 130 127
87 95 114 113 78 112 112 106 93 94 85 94 98 102 106 100 94 64 115 149 142 127 123 121 86 105 116

GFSFLT2_con_3kmhel_111.txt.gz
Helicity
173 206 243 246 254 221 207 240 196 200 205 226 219 180 153 146 121 102 78 65 65 68 82 77 77 81 69
229 247 267 275 253 249 222 189 183 163 179 200 189 163 133 126 113 87 79 77 77 90 90 82 70 62 49
231 278 267 252 242 275 261 202 181 160 191 190 150 124 102 83 78 83 86 85 80 85 74 58 49 50 48
240 247 256 255 272 248 221 166 180 176 211 166 136 86 75 76 68 81 86 82 66 57 43 34 40 46 50
253 262 251 267 218 226 231 217 160 165 169 149 123 99 93 102 88 84 74 64 54 42 25 32 41 42 48
257 244 233 244 250 226 260 179 115 155 156 116 101 82 87 86 72 78 60 55 49 37 32 38 43 47 58
208 181 190 161 236 236 218 204 166 136 146 110 95 83 96 87 68 62 66 65 55 39 33 35 43 52 61
201 191 185 177 196 181 192 224 213 163 125 96 88 94 106 101 121 74 68 63 53 36 33 37 45 68 69
198 197 179 151 151 184 226 237 181 116 103 97 83 101 106 109 119 97 66 63 58 52 58 76 88 67 91
142 182 227 189 163 154 149 185 149 98 89 111 98 96 94 109 104 105 103 96 91 84 84 79 88 117 108
108 119 126 129 123 116 116 99 115 108 62 106 103 125 123 92 115 110 105 109 116 124 123 113 102 99 105
99 98 103 92 86 85 92 101 104 86 90 111 85 102 122 116 93 104 106 113 116 116 114 125 128 109 82
88 72 61 62 81 95 101 100 118 124 119 110 95 102 111 98 86 96 115 112 113 107 128 149 132 117 108
66 74 76 85 83 75 75 76 100 110 106 85 76 86 95 83 83 95 103 113 112 133 129 124 113 99 109
74 67 64 75 67 72 77 86 93 107 106 86 64 61 66 79 79 88 98 100 118 114 125 120 116 108 103
77 65 80 74 81 77 81 84 102 104 99 103 109 94 83 62 58 102 97 99 112 133 136 123 120 128 107
91 94 94 95 60 96 80 93 105 105 95 94 104 108 98 98 93 50 95 107 121 119 128 131 118 128 130

GFSFLT2_con_3kmhel_114.txt.gz
Helicity
156 165 173 199 210 211 224 225 221 175 201 181 210 184 202 173 149 131 90 80 79 71 60 59 66 75 75
157 163 189 209 225 231 258 204 208 189 142 148 168 152 171 153 125 122 102 79 78 76 74 80 72 71 50
170 212 227 230 285 265 256 249 227 183 148 130 134 156 167 141 116 84 65 70 75 80 79 79 69 52 40
179 202 211 214 266 278 253 237 222 225 184 177 196 155 135 104 79 89 69 67 68 72 74 69 58 46 48
210 226 228 245 222 237 268 262 211 203 178 181 179 171 148 118 78 73 67 61 60 59 60 53 44 50 53
211 218 221 236 253 255 302 271 230 171 182 149 168 132 108 89 76 68 57 52 50 52 56 40 48 58 61
164 184 198 165 192 222 251 229 210 159 173 142 154 113 95 89 75 59 60 53 48 54 53 46 51 59 60
154 152 142 138 152 168 209 245 227 191 182 149 130 103 98 93 107 63 64 65 59 53 46 42 47 56 61
186 170 144 138 139 173 191 212 184 145 142 145 108 111 101 103 121 105 75 64 54 48 41 46 47 60 78
122 124 150 140 158 144 150 168 176 141 96 125 111 102 78 114 130 153 145 86 58 59 69 76 73 111 101
110 92 95 107 109 117 117 100 118 114 48 99 82 114 121 69 119 118 105 98 99 116 130 118 101 93 96
106 99 89 74 67 74 83 90 90 69 72 111 73 90 113 122 93 107 111 109 102 95 101 94 100 97 82
92 82 65 40 53 69 85 95 109 106 105 94 74 88 112 107 97 95 120 93 108 103 100 101 102 110 112
77 66 73 82 67 67 71 69 69 88 90 90 78 101 104 90 93 101 99 87 96 100 108 106 98 99 91
83 81 85 90 79 73 76 84 83 66 69 72 73 75 67 70 81 88 97 102 93 90 100 89 73 81 93
100 106 98 86 90 90 89 87 100 104 103 75 99 92 81 64 49 91 93 91 89 98 112 88 79 93 103
121 119 117 101 76 113 116 101 122 122 81 84 108 105 97 106 100 45 108 97 100 87 100 97 96 101 109

GFSFLT2_con_3kmhel_117.txt.gz
Helicity
140 148 147 148 169 184 205 217 203 190 186 179 158 154 169 170 185 179 161 125 101 63 61 42 54 64 50
129 137 151 161 174 204 229 236 227 208 177 162 147 135 135 154 195 187 169 154 82 76 44 40 42 49 43
135 166 173 197 229 237 219 247 228 186 170 146 135 129 124 181 211 178 160 132 114 91 58 60 48 56 48
129 147 173 201 226 233 227 229 233 218 191 207 154 153 144 167 158 128 114 99 79 70 74 58 65 59 56
97 149 181 211 224 218 233 257 235 225 229 216 163 156 176 137 141 103 80 84 77 66 69 63 59 61 58
103 131 151 181 200 211 253 262 213 174 210 162 160 143 133 125 130 80 64 61 69 66 67 63 59 59 57
81 117 137 155 180 195 189 221 237 183 230 170 150 125 133 133 100 69 54 51 54 64 66 64 64 57 58
97 103 123 129 126 137 154 190 182 158 160 142 126 122 126 112 96 59 45 55 54 58 63 67 57 50 54
151 165 169 152 132 149 165 178 174 150 102 135 116 137 114 95 79 95 51 64 60 54 45 56 49 42 52
133 137 142 128 135 120 116 140 146 114 107 127 125 104 81 85 105 122 92 69 52 43 35 41 36 71 80
120 112 110 105 101 108 119 102 94 88 72 106 82 99 98 61 78 105 120 96 91 94 64 61 64 83 74
122 110 109 94 82 86 91 87 76 50 51 78 54 55 74 78 53 82 85 76 71 76 96 106 84 57 53
115 113 97 79 74 68 75 79 85 78 90 87 72 55 57 74 90 77 109 55 64 72 82 79 75 79 77
106 97 89 82 69 64 66 68 66 61 71 69 65 62 66 71 77 74 83 82 79 84 82 74 76 76 69
97 91 84 83 78 73 69 74 71 68 55 62 65 65 62 80 58 68 71 74 72 81 87 73 58 56 56
94 90 86 88 86 93 77 67 68 69 75 73 70 72 89 47 63 76 69 73 71 67 69 71 58 43 54
98 94 96 92 89 103 88 84 72 73 77 89 84 110 143 98 82 34 76 82 78 79 89 84 79 67 55